Location: Musselshell
(46.5176°N, 108.0911°W)
Time: 21:18:11
(UTC+00:00)

X-37B - Pass Details

Date: 27 January 2022
Orbit: 329 x 342 km, 45.0° (Epoch: 18 May)

Event Time Altitude Azimuth Distance (km) Brightness Sun altitude
Rises 02:25:44 0° 230° (SW) 2,107 5.1 -23.6°
Reaches altitude 10° 02:27:54 10° 217° (SW) 1,270 3.7 -24.0°
Enters shadow 02:28:11 12° 214° (SW) 1,172 3.4 -24.1°
